Location: Chmeli�t?
(49.8978°N, 15.0526°E)
Time: 12:53:04
(UTC+00:00)

FALCON 9 DEB - Pass Details

Date: 07 June 2020
Orbit: 428 x 442 km, 53.0° (Epoch: 11 July)

Event Time Altitude Azimuth Distance (km) Brightness Sun altitude
Rises 00:36:00 0° 290° (WNW) 2,405 6.9 -14.2°
Reaches altitude 10° 00:38:07 10° 292° (WNW) 1,538 5.9 -14.0°
Maximum altitude 00:41:34 72° 17° (NNE) 460 3.4 -13.8°
Drops below altitude 10° 00:45:01 10° 103° (ESE) 1,542 6.1 -13.6°
Sets 00:47:09 0° 106° (ESE) 2,412 7.0 -13.4°
